Terminal Aerodrome Forecast
Issued by NWS Missoula, MT

Home | Current Version | Previous Version | Text Only | Print | Product List | Glossary On
Versions: 1 2 3 4 5 6 7 8 9 10 11 12 13 14 15 16 17 18
000
FTUS45 KMSO 301919 AAA
TAFGPI
TAF AMD
KGPI 301919Z 3019/3118 23011G18KT P6SM FEW100
     FM310400 19004KT P6SM SCT050 BKN100
     FM310800 VRB05KT P6SM VCSH BKN050 OVC080=

USA.gov is the U.S. government's official web portal to all federal, state and local government web resources and services.